Regional Weather Roundup
Issued by NWS Albany, NY

Home | Current Version | Previous Version | Text Only | Print | Product List | Glossary On
Versions: 1 2 3 4 5 6 7 8 9 10 11 12 13 14 15 16 17 18 19 20 21 22 23 24 25 26 27 28 29 30 31 32 33 34 35 36 37 38 39 40 41 42 43 44 45 46 47 48 49
000
ASUS41 KALY 291810
RWRALY

NEW YORK STATE HOURLY WEATHER ROUNDUP
NATIONAL WEATHER SERVICE ALBANY NY
200 PM EDT WED JUL 29 2015

NOTE: "FAIR" INDICATES FEW OR NO CLOUDS BELOW 12,000 FEET WITH NO
SIGNIFICANT WEATHER AND/OR NO OBSTRUCTIONS TO VISIBILITY.

NYZ032-033-038>043-046>054-057>066-NYZ062>081-291900-
EAST


CITY           SKY/WX    TMP DP  RH WIND       PRES   REMARKS
ALBANY         PTSUNNY   91  61  36 VRB3      29.95F HX  91
GLENS FALLS    SUNNY     88  67  49 S12       29.93F HX  91
POUGHKEEPSIE   SUNNY     93  57  29 VRB5      29.95F HX  91
NEWBURGH       SUNNY     90  64  43 CALM      29.98F HX  91
MONTGOMERY     SUNNY     93  60  33 SW8       29.97F HX  93
WHITE PLAINS   MOSUNNY   90  62  39 SW7       29.97F HX  90
ISLIP          CLOUDY    90  68  48 S10       29.95S HX  94
NEW YORK CITY  PTSUNNY   92  62  36 E8        29.95F HX  92
CENTRAL PARK   MOSUNNY   92  64  39 CALM      29.98F HX  93
$$

NYZ005>009-017-018-044>046-055-056-291900-
CENTRAL


CITY           SKY/WX    TMP DP  RH WIND       PRES   REMARKS
FULTON         SUNNY     90  67  46 S9        29.95F HX  93
SYRACUSE       PTSUNNY   91  66  43 W7        29.94F HX  93
ROME           MOSUNNY   88  66  48 SW9       29.97F HX  90
ELMIRA         MOSUNNY   90  65  43 SW7       29.97F HX  92
BINGHAMTON     SUNNY     83  64  52 S6        30.03F
MONTICELLO     SUNNY     86  63  45 W9        30.04F
$$

NYZ026>034-041>043-291900-
NORTH


CITY           SKY/WX    TMP DP  RH WIND       PRES   REMARKS
WATERTOWN      MOSUNNY   87  68  52 W12       29.94F HX  90
FORT DRUM      NOT AVBL
MASSENA        MOSUNNY   88  70  55 W12       29.91F HX  93
SARANAC LAKE   PTSUNNY   86  62  44 SW10G16   29.97F
PLATTSBURGH    MOSUNNY   85  71  63 SE14      29.89F HX  90
$$

NYZ001>004-010>016-019>021-291900-
WEST


CITY           SKY/WX    TMP DP  RH WIND       PRES   REMARKS
NIAGARA FALLS  PTSUNNY   89  62  40 SW10      29.93F
BUFFALO        MOSUNNY   90  58  33 W9        29.95F
DUNKIRK        MOSUNNY   87  67  51 N6        29.96F HX  90
JAMESTOWN      SUNNY     82  57  42 S6        30.03S
WELLSVILLE     MOSUNNY   85  57  38 SW10      30.06F
ROCHESTER      PTSUNNY   89  63  41 SW10      29.95F HX  90
PENN YAN       MOSUNNY   88  65  46 SW9       29.99F HX  90
$$

             KEY
       WCI = WIND CHILL INDEX
       VSB = VISIBILITY
       HX  = HEAT INDEX
$$



USA.gov is the U.S. government's official web portal to all federal, state and local government web resources and services.